Overview Statistics Trail Chart Weather Telemetry Raw packets
 

This is the latest recevied weather packets stored in our database for station/object N5ATR. If no packets are shown the sender has not sent any weather packets the latest 10 day(s).

<< 83 84 85 86 87 88 89 >>
Time Temp. Humidity Pressure Rain* Wind** Luminosity Snow
1788084729 15.56° C 74% 1023.6 hPa 0 mm - 0 W/m² -
1788084423 16.11° C 73% 1023.8 hPa 0 mm - 0 W/m² -
1788084123 16.67° C 71% 1024 hPa 0 mm - 0 W/m² -
1788083822 16.67° C 70% 1023.9 hPa 0 mm - 0 W/m² -
1788083518 16.67° C 69% 1023.9 hPa 0 mm - 0 W/m² -
1788083214 17.22° C 67% 1023.9 hPa 0 mm - 0 W/m² -
1788082909 17.22° C 67% 1024 hPa 0 mm - 0 W/m² -
1788082604 16.67° C 67% 1023.6 hPa 0 mm - 0 W/m² -
1788082301 16.67° C 69% 1023.6 hPa 0 mm - 0 W/m² -
1788081995 16.67° C 69% 1023.5 hPa 0 mm - 0 W/m² -
1788081692 17.22° C 67% 1023.6 hPa 0 mm - 0 W/m² -
1788081387 17.22° C 68% 1023.5 hPa 0 mm - 0 W/m² -
1788081086 16.67° C 68% 1023.6 hPa 0 mm - 0 W/m² -
1788080781 17.22° C 68% 1023.6 hPa 0 mm - 0 W/m² -
1788080477 17.22° C 68% 1023.5 hPa 0 mm - 0 W/m² -
1788080176 17.22° C 66% 1023.4 hPa 0 mm - 0 W/m² -
1788079872 16.67° C 67% 1023.8 hPa 0 mm - 0 W/m² -
1788079568 16.67° C 68% 1023.8 hPa 0 mm - 0 W/m² -
1788079268 16.67° C 69% 1024 hPa 0 mm - 0 W/m² -
1788078963 16.67° C 68% 1023.9 hPa 0 mm - 0 W/m² -
1788078663 16.67° C 68% 1023.9 hPa 0 mm - 0 W/m² -
1788078358 16.67° C 69% 1024.4 hPa 0 mm - 0 W/m² -
1788078054 16.67° C 68% 1023.9 hPa 0 mm - 0 W/m² -
1788077749 16.11° C 70% 1024.4 hPa 0 mm - 0 W/m² -
1788077448 16.11° C 71% 1024.5 hPa 0 mm - 0 W/m² -

* Rain latest hour (hover to see other rain measurements)
** Current wind speed in m/s (hover to see current wind gust speed)